Tracking 22993 objects as of 11-May-2021
HD Live streaming from Space Station
objects crossing your sky now

ORBCOMM FM 27

Track ORBCOMM FM 27 now!
10-day predictions
ORBCOMM FM 27 is classified as:


NORAD ID: 25481
Int'l Code: 1998-053G
Perigee: 787.4 km
Apogee: 789.9 km
Inclination: 45.0 °
Period: 100.5 minutes
Semi major axis: 7159 km
RCS: 0.6177 m2 (medium)
Launch date: September 23, 1998
Source: ORBCOMM (ORB)
Launch site: Pegasus launched from Eastern Range Air Space (ERAS)
aabbcc
Your satellite tracking list
Your tracking list is empty




NASA's NSSDC Master Catalog

Two Line Element Set (TLE):
1 25481U 98053G   21130.69453031  .00000044  00000-0  66642-4 0  9999
2 25481  45.0059 133.7981 0001757 275.0610  85.0036 14.33062284182497
Source of the keplerian elements: AFSPC